Regional Weather Roundup
Issued by NWS

Home | Current Version | Previous Version | Graphics & Text | Print | Product List | Glossary Off
Versions: 1 2 3 4 5 6 7 8 9 10 11 12 13 14 15 16 17 18 19 20 21 22 23 24 25 26 27 28 29 30 31 32 33 34 35 36 37 38 39 40 41 42 43 44 45 46 47 48 49 50

000
ASUS43 KMKX 261300
RWRWI

WISCONSIN REGIONAL WEATHER ROUNDUP
NATIONAL WEATHER SERVICE MILWAUKEE/SULLIVAN WI
800 AM CDT THU MAY 26 2016

NOTE: "FAIR" INDICATES FEW OR NO CLOUDS BELOW 12,000 FEET WITH NO
SIGNIFICANT WEATHER AND/OR OBSTRUCTIONS TO VISIBILITY.

WIZ001-002-006>008-014>016-023>028-261400-
NORTHWEST WISCONSIN

CITY           SKY/WX    TMP DP  RH WIND       PRES   REMARKS
SUPERIOR ARPT  FOG       43  43 100 NE6       29.82F VSB 1/4
ASHLAND        FOG       51  51 100 NE3       29.81F VSB 1/2
HAYWARD        CLOUDY    60  58  92 CALM      29.80R FOG
SIREN          FOG       57  57  98 CALM      29.78F VSB 1/4
CUMBERLAND     FOG       59  57  94 CALM      29.79R VSB 1/2
RICE LAKE      CLOUDY    61  60  96 SE3       29.81S FOG
CHETEK         CLOUDY    61  61 100 CALM      29.80R FOG
LADYSMITH      FOG       62  62  98 SE5       29.83R VSB 3/4
EAU CLAIRE     NOT AVBL
MENOMONIE      CLOUDY    60  60  99 W7        29.79R
NEW RICHMOND   CLOUDY    63  60  93 CALM      29.79R
OSCEOLA        CLOUDY    63  63 100 CALM      29.82R FOG
$$

WIZ003>005-009-010-017-018-261400-
NORTH CENTRAL WISCONSIN

CITY           SKY/WX    TMP DP  RH WIND       PRES   REMARKS
MANITOWISH WTR NOT AVBL
ARBOR VITAE    CLOUDY    62  61  96 CALM      29.83S FOG
WOODRUFF       CLOUDY    62  61  96 CALM      29.83S FOG
RHINELANDER    CLOUDY    62  61  96 S3        29.85R FOG
EAGLE RIVER      N/A     61  60  97 CALM      29.84S
LAND O LAKES   CLOUDY    61  60  97 W3        29.85S
PHILLIPS       FOG       61  61 100 SE3       29.81R VSB 3/4
TOMAHAWK       FOG       62  61  97 CALM      29.84R VSB 1/2
MEDFORD        RAIN      61  61 100 S3        29.84R VSB 1/2
MERRILL        FOG       63  63 100 SE3       29.84S VSB 1
$$

WIZ029-030-035-036-043>047-261400-
CENTRAL WISCONSIN

CITY           SKY/WX    TMP DP  RH WIND       PRES   REMARKS
WAUSAU         FOG       63  32  31 S9        29.84R VSB 1/2
MOSINEE        RAIN      61  61 100 S13       29.89R VSB 1/4
MARSHFIELD     TSTM      61  59  93 SW6       29.86R FOG
STEVENS POINT  FOG       59  59 100 CALM      29.86R VSB 3/4
WAUPACA        FOG       63  62  97 CALM      29.86R VSB 1/2
WAUTOMA        CLOUDY    57  57 100 CALM      29.87R FOG
WISC RAPIDS    TSTM      60  58  92 W7        29.89R FOG
CAMP DOUGLAS   LGT RAIN  61  61 100 N6        29.83F
$$

WIZ011>013-019>022-031-037>040-048>050-261400-
NORTHEAST WISCONSIN

CITY           SKY/WX    TMP DP  RH WIND       PRES   REMARKS
ANTIGO         FOG       61  61 100 CALM      29.86R VSB 3/4
SHAWANO        FOG       64  63  96 S3        29.86R VSB 1
OCONTO         CLOUDY    61  61 100 S5        29.86R VSB 3/4
STURGEON BAY   NOT AVBL
GREEN BAY      CLOUDY    64  63  96 CALM      29.85S FOG
MANITOWOC      NOT AVBL
APPLETON       PTSUNNY   63  63 100 CALM      29.85S FOG
CLINTONVILLE   FOG       63  61  94 S3        29.86R VSB 3/4
OSHKOSH        CLOUDY    66  63  90 SW3       29.85S
$$

WIZ032>034-041-042-053>061-261400-
SOUTHWEST WISCONSIN

CITY           SKY/WX    TMP DP  RH WIND       PRES   REMARKS
LA CROSSE      CLOUDY    62  60  93 SW9       29.81F
SPARTA         CLOUDY    59  59 100 NE7       29.80F
VIROQUA        CLOUDY    61  61 100 E5        29.82F
BOSCOBEL       CLOUDY    66  61  84 SW3       29.84R
PRAIRIE DU CHI PTSUNNY   61  60  96 W6        29.85R
PLATTEVILLE    CLOUDY    64  60  88 NW6       29.86S
$$

WIZ056-057-062-063-064-067-068-261400-
SOUTH CENTRAL WISCONSIN

CITY           SKY/WX    TMP DP  RH WIND       PRES   REMARKS
REEDSBURG      LGT RAIN  63  62  95 NW8G22    29.84F
BARABOO/DELLS  CLOUDY    64  61  90 W5        29.85F
LONE ROCK      NOT AVBL
MINERAL POINT  CLOUDY    66  61  82 NW5       29.86F
MADISON        TSTM      66  61  84 VRB5      29.85F
MIDDLETON      CLOUDY    66  61  84 W10G23    29.86F
WATERTOWN      CLOUDY    68  68 100 SW7       29.86S
MONROE         CLOUDY    63  59  88 W7        29.89F
JANESVILLE     PTSUNNY   66  64  94 W10       29.90R
$$

WIZ051-052-058>065-066-070>072-261400-
SOUTHEAST WISCONSIN

CITY           SKY/WX    TMP DP  RH WIND       PRES   REMARKS
MILWAUKEE      PTSUNNY   70  66  87 S10       29.88F
WAUKESHA       MOSUNNY   68  64  88 S9        29.89S FOG
MILWAUKEE/TIMM SUNNY     70  64  83 S6        29.87F
RACINE         PTSUNNY   69  64  84 S8        29.91F
BURLINGTON     PTSUNNY   68  66  93 S10       29.89R
KENOSHA        CLOUDY    70  66  87 SW9       29.90S
FOND DU LAC    CLOUDY    68  65  90 SW7       29.86S
SHEBOYGAN      PTSUNNY   67  65  93 S8        29.86F
WEST BEND      MOSUNNY   66  66 100 CALM      29.86F
JUNEAU         MOSUNNY   67  65  95 S8        29.87F
$$

LSZ147-162-261400-
LAKE SUPERIOR

STATION/POSITION TIME  TEMP    WIND        PRES    WAVE
                       AIR SEA DIR/SP/G            HT/PER
                 (UTC) (F)     (DEG/KT/KT) (MB)    (FT/S)
W MID LAKE BUOY  1150   41 38   30/  6/  8 1010.7R   1/ 4
DEVILS ISLAND    1200   42      60/  8/  9 1010.5F
SAXON HARBOR     1200   48      20/  2/  3 1009.8R
$$

LMZ867-665-643>646-261400-
LAKE MICHIGAN

STATION/POSITION TIME  TEMP    WIND        PRES    WAVE
                       AIR SEA DIR/SP/G            HT/PER
                 (UTC) (F)     (DEG/KT/KT) (MB)    (FT/S)
CHAMBERS ISLAND  1200   57     170/  3/  7 1011.2R
N MID LAKE BUOY  1150   50 45  210/ 14/ 16 1011.0R   1
NORTHPORT PIER   1200   55     180/  4/ 10 1010.8S
SISTER BAY       1104   54     160/  6/  8   N/A
ALGOMA LAKESHORE 1117             CALM       N/A
KEWAUNEE LAKESHO 1200   49     170/  5/  7 1010.8R
SHEBOYGAN LAKESH 1200   56     190/  8/  9 1011.9R
PORT WASHINGTON  1200   55     190/  7/  8 1012.9R
S MID LAKE BUOY  1150   54 49  170/ 14/ 16 1012.8R   2/ 4
KENOSHA   LAKESH 1200   68     210/  8/ 13 1012.2S
$$

TC  - TEMPERATURE IN CELSIUS
VSB - VISIBILITY IN STATUTE MILES
WCI - WIND CHILL INDEX
HX  - HEAT INDEX





USA.gov is the U.S. government's official web portal to all federal, state and local government web resources and services.